COSMOS 1275 DEB, 12690

Orbit data source: Space-Track

COSMOS 1275 DEB, 12690 is space debris in LEO originally from a launch on Thu, 04 Jun 1981 UTC launched from the Plesetsk Missile And Space Complex (PKMTR). Debris objects in space refer to the collection of defunct objects orbiting the Earth. Examples of debris include non-operational satellites, rocket bodies, and fragments generated from explosions, collisions, or faulty payload assembly.

Loading next visibility...
Identifier
12690, 1981-053AJ
Orbit
LEO
Last TLE update
7 hours ago
Origin
Manufacturer
Unknown
Mission
Spacecraft
Bus & Motor
Unknown
Mass
Unknown
Launch date (UTC)
1981-06-04 (44 years ago)
Launch vehicle
Unknown
Launch site
Plesetsk Missile And Space Complex (PKMTR)
Object type
Payload
Rocket body
Debris
Shape & HBR
Unknown
Radar Cross Section
Medium (>0.1 m² and <1 m²)

Expand to show TLE details & history

TLE from 7 hours ago
0 COSMOS 1275 DEB
1 12690U 81053AJ  25192.16172573  .00000771  00000-0  64410-3 0  9999
2 12690  82.9509 231.5109 0089714   3.3565  57.5380 13.85350968197165
Epoch: 2025-07-11T03:52Z
TLE epoch observation values (Epoch: 2025-07-11T03:52:53.103Z)
Latitude
61.06386°
Longitude
-103.1724°
Altitude
920.554 km
Speed
7.415 km/s
True Right ascension
16h 17m 27s
True Declination
60° 55' 16"
Sunlit
Object was in daylight at epoch
Visualization orbit readout
Latitude
72.26408°
Longitude
41.12798°
Altitude
972.632 km
Speed
7.364 km/s
Apparent Right ascension
09h 43m 30s
Apparent Declination
40° 09' 28"
Sunlit
Object is in daylight
Visualization observer readout
Local Sidereal Time
23:19:43
Azimuth
18.291° NNE
Elevation
-6.977°
Doppler factor
1
Orbital elements
Apogee altitude
1,007.775 km
Perigee altitude
876.43 km
Semi-major axis
7,320.239 km
Eccentricity
0.00897
Inclination
82.9509°
RAAN
231.5109°
Arg. of periapsis
3.3565°
True anomaly
Unknown
Mean anomaly
57.538°
Eccentric anomaly
Unknown
Mean motion
3.46541 °/min
Orbital period
103.88 mins
BSTAR
0.0006441
Loading maneuver chart data...
Loading SW <> Apogee altitude chart data...
Loading historical data...
Loading historical data...
Loading historical data...
Loading historical data...
Loading historical data...
Loading historical data...
Loading historical data...

COSMOS 1275 DEB Visibility forecast

Observer location: undefined°, undefined°

Span
Click to sort rows by Start time (UTC) header in descending order
Start Az.
Max El. time (UTC)
Max El. Az.
Max El.
End time (UTC)
End Az.
4 mins2025-07-11 12:51:45.368Z45.082° ENE2025-07-11 12:53:45.368Z64.443° ENE12.218°2025-07-11 12:55:45.368Z83.887° E
11 mins2025-07-11 14:34:45.368Z354.646° N2025-07-11 14:39:45.368Z144.215° SSE44.688°2025-07-11 14:45:45.368Z172.966° S
4 mins2025-07-11 16:21:45.368Z295.552° NW2025-07-11 16:23:45.368Z275.463° WNW12.802°2025-07-11 16:25:45.368Z256.45° W
7 mins2025-07-12 02:15:45.368Z124.471° SE2025-07-12 02:18:45.368Z85.127° E21.761°2025-07-12 02:22:45.368Z37.666° NE
9 mins2025-07-12 03:58:45.368Z215.675° SW2025-07-12 04:02:45.368Z271.841° WNW34.335°2025-07-12 04:07:45.368Z350.08° N
|